Location: ????????
(55.5667°N, 37.5833°E)
Time: 09:46:52
(UTC+00:00)

Meteor 1-22 - Pass Details

Date: 14 April 2026
Orbit: 795 x 904 km, 81.3° (Epoch: 19 May)

Event Time Altitude Azimuth Distance (km) Brightness Sun altitude
Rises 22:14:55 0° 344° (NNW) 3,358 8.8 -24.1°
Reaches altitude 10° 22:17:20 10° 344° (NNW) 2,409 7.9 -24.0°
Maximum altitude 22:22:45 80° 258° (WSW) 821 4.5 -23.8°
Enters shadow 22:23:37 63° 190° (S) 894 4.5 -23.8°
